This is the latest recevied weather packets stored in our database for station/object NY5V. If no packets are shown the sender has not sent any weather packets the latest 10 day(s).
| Time | Temp. | Humidity | Pressure | Rain* | Wind** | Luminosity | Snow |
|---|---|---|---|---|---|---|---|
| 1778001638 | 25.56° C | 81% | 1007.4 hPa | 0 mm | - | 294 W/m² | - |
| 1778001036 | 25° C | 82% | 1007.6 hPa | 0 mm | - | 407 W/m² | - |
| 1778000435 | 25° C | 82% | 1007.3 hPa | 0 mm | - | 485 W/m² | - |
| 1777999832 | 25° C | 81% | 1007.7 hPa | 0 mm | - | 189 W/m² | - |
| 1777999232 | 25° C | 83% | 1007.6 hPa | 0 mm | - | 176 W/m² | - |
| 1777998627 | 24.44° C | 84% | 1007.5 hPa | 0 mm | - | 297 W/m² | - |
| 1777998023 | 24.44° C | 84% | 1007.6 hPa | 0 mm | - | 163 W/m² | - |
| 1777997423 | 23.33° C | 86% | 1007.6 hPa | 0 mm | - | 224 W/m² | - |
| 1777996818 | 23.33° C | 86% | 1007.3 hPa | 0 mm | - | 74 W/m² | - |
| 1777996216 | 23.33° C | 86% | 1007.3 hPa | 0 mm | - | 87 W/m² | - |
| 1777995615 | 22.78° C | 86% | 1007.4 hPa | 0 mm | - | 81 W/m² | - |
| 1777995015 | 22.78° C | 86% | 1007.3 hPa | 0 mm | - | 106 W/m² | - |
| 1777994413 | 22.78° C | 86% | 1007.5 hPa | 0 mm | - | 69 W/m² | - |
| 1777993811 | 22.78° C | 86% | 1007.6 hPa | 0 mm | - | 56 W/m² | - |
| 1777993210 | 22.22° C | 86% | 1007.4 hPa | 0 mm | - | 84 W/m² | - |
| 1777992604 | 22.22° C | 86% | 1007.2 hPa | 0 mm | - | 76 W/m² | - |
| 1777992005 | 22.22° C | 86% | 1007.2 hPa | 0 mm | - | 100 W/m² | - |
| 1777991405 | 22.22° C | 85% | 1007.5 hPa | 0 mm | - | 61 W/m² | - |
| 1777990805 | 22.22° C | 86% | 1007.6 hPa | 0 mm | - | 86 W/m² | - |
| 1777989604 | 21.67° C | 89% | 1007.6 hPa | 0 mm | - | 32 W/m² | - |
| 1777989002 | 21.11° C | 90% | 1007.5 hPa | 0 mm | - | 29 W/m² | - |
| 1777988401 | 21.11° C | 92% | 1007.5 hPa | 0 mm | - | 26 W/m² | - |
| 1777987799 | 20.56° C | 93% | 1007.3 hPa | 0 mm | - | 36 W/m² | - |
| 1777987194 | 20.56° C | 94% | 1007.1 hPa | 0 mm | - | 19 W/m² | - |
| 1777986595 | 20.56° C | 93% | 1007.1 hPa | 0 mm | - | 15 W/m² | - |
* Rain latest hour (hover to see other rain measurements)
** Current wind speed in m/s (hover to see current wind gust speed)